JAL44 EGLL-RJTT

Flight info

Callsign JAL44
Flight time N/A
Altitude 31000
Route DET L6 DVR L9 KONAN UL607 MATUG DCT GUBAX DCT KOMIB L984 SULUS Z650 VEMUT DCT PEPIK DCT BERVA DCT ERGOM DCT BUDOP/N0490F330 DCT DVA DCT BULEN DCT RIXEN UA17 YAVRU UA4 SIV UW706 TBN UN61 NOLGA DCT BARAD DCT SUBUT T916 BALUN/K0913F330 T916 EFMIF/K0900F350 T916 MIHOS N147 GENGA DCT SARIN/K0896S1070 A368 FKG W188 LIKMI W270 POPIB/K0895S1130 W270 DKO W69 HUR B339 LADIX W34 VAPGU W100 ORAVA W201 UNSEK A326 DONVO G597 AGAVO/N0485F370 Y644 EGOBA Y697 LANAT Y71 XAC
Aircraft B77W/H-SDE1E2E3FGHIJ2J3J4J5M1RWXY/LB1D1

Departure

Time 2026-05-06 12:07
Airport London Heathrow Airport (EGLL)

Arrival

Time N/A
Airport Tokyo Haneda International Airport (RJTT)
Time Latitude Longitude Altitude Speed Heading
2026-05-06 11:08 51.47396 -0.46240 92 ft 0 kts 236°
2026-05-06 11:44 51.47414 -0.46196 93 ft 4 kts 237°
2026-05-06 11:44 51.47425 -0.46163 94 ft 4 kts 264°
2026-05-06 11:44 51.47424 -0.46136 93 ft 4 kts 304°
2026-05-06 11:44 51.47407 -0.46111 91 ft 4 kts 329°
2026-05-06 11:45 51.47387 -0.46092 95 ft 1 kts 326°
2026-05-06 11:45 51.47384 -0.46087 95 ft 0 kts 326°
2026-05-06 11:48 51.47397 -0.46102 91 ft 5 kts 326°
2026-05-06 11:49 51.47426 -0.46133 93 ft 5 kts 326°
2026-05-06 11:49 51.47455 -0.46165 92 ft 5 kts 326°
2026-05-06 11:49 51.47495 -0.46211 96 ft 9 kts 318°
2026-05-06 11:49 51.47514 -0.46298 92 ft 9 kts 274°
2026-05-06 11:50 51.47515 -0.46395 91 ft 9 kts 270°
2026-05-06 11:50 51.47515 -0.46492 91 ft 9 kts 270°
2026-05-06 11:50 51.47515 -0.46586 91 ft 9 kts 270°
2026-05-06 11:50 51.47514 -0.46683 93 ft 9 kts 267°
2026-05-06 11:51 51.47497 -0.46771 94 ft 9 kts 257°
2026-05-06 11:51 51.47486 -0.46866 94 ft 9 kts 238°
2026-05-06 11:51 51.47429 -0.46889 94 ft 9 kts 170°
2026-05-06 11:51 51.47369 -0.46873 94 ft 9 kts 174°
2026-05-06 11:52 51.47307 -0.46869 94 ft 9 kts 179°
2026-05-06 11:52 51.47245 -0.46868 93 ft 9 kts 179°
2026-05-06 11:52 51.47184 -0.46868 91 ft 9 kts 179°
2026-05-06 11:52 51.47122 -0.46867 91 ft 9 kts 179°
2026-05-06 11:53 51.47062 -0.46866 91 ft 9 kts 179°
2026-05-06 11:53 51.47000 -0.46866 91 ft 9 kts 180°
2026-05-06 11:53 51.46938 -0.46865 91 ft 9 kts 180°
2026-05-06 11:53 51.46880 -0.46865 91 ft 8 kts 179°
2026-05-06 11:54 51.46824 -0.46864 93 ft 8 kts 179°
2026-05-06 11:54 51.46783 -0.46864 94 ft 6 kts 184°
2026-05-06 11:54 51.46752 -0.46910 95 ft 6 kts 249°
2026-05-06 11:54 51.46747 -0.46982 95 ft 7 kts 268°
2026-05-06 11:55 51.46746 -0.47070 95 ft 8 kts 270°
2026-05-06 11:55 51.46746 -0.47178 95 ft 13 kts 270°
2026-05-06 11:55 51.46745 -0.47321 95 ft 13 kts 269°
2026-05-06 11:55 51.46745 -0.47464 91 ft 13 kts 269°
2026-05-06 11:56 51.46744 -0.47607 93 ft 13 kts 269°
2026-05-06 11:56 51.46744 -0.47685 91 ft 0 kts 269°
2026-05-06 12:00 51.46743 -0.47710 91 ft 7 kts 269°
2026-05-06 12:00 51.46743 -0.47787 91 ft 7 kts 269°
2026-05-06 12:00 51.46743 -0.47887 91 ft 12 kts 269°
2026-05-06 12:00 51.46742 -0.48004 91 ft 10 kts 270°
2026-05-06 12:01 51.46742 -0.48112 91 ft 10 kts 270°
2026-05-06 12:01 51.46742 -0.48217 91 ft 10 kts 270°
2026-05-06 12:01 51.46742 -0.48325 92 ft 10 kts 270°
2026-05-06 12:01 51.46742 -0.48431 91 ft 10 kts 270°
2026-05-06 12:02 51.46741 -0.48538 91 ft 10 kts 269°
2026-05-06 12:02 51.46741 -0.48643 91 ft 9 kts 269°
2026-05-06 12:02 51.46730 -0.48720 96 ft 7 kts 235°
2026-05-06 12:02 51.46683 -0.48748 95 ft 8 kts 183°
2026-05-06 12:03 51.46635 -0.48755 94 ft 2 kts 190°
2026-05-06 12:03 51.46626 -0.48759 95 ft 0 kts 195°
2026-05-06 12:05 51.46618 -0.48763 95 ft 3 kts 195°
2026-05-06 12:05 51.46550 -0.48785 95 ft 14 kts 182°
2026-05-06 12:06 51.46485 -0.48715 97 ft 12 kts 114°
2026-05-06 12:06 51.46478 -0.48622 95 ft 2 kts 91°
2026-05-06 12:06 51.46478 -0.48594 94 ft 2 kts 90°
2026-05-06 12:06 51.46478 -0.48473 93 ft 30 kts 90°
2026-05-06 12:07 51.46480 -0.47755 91 ft 101 kts 90°
2026-05-06 12:07 51.46487 -0.46266 96 ft 164 kts 89°
2026-05-06 12:07 51.46503 -0.44230 233 ft 194 kts 86°
2026-05-06 12:07 51.46465 -0.42122 830 ft 191 kts 94°
2026-05-06 12:08 51.46096 -0.40007 1350 ft 205 kts 121°
2026-05-06 12:08 51.45027 -0.38564 1774 ft 207 kts 149°
2026-05-06 12:08 51.43955 -0.37089 2001 ft 208 kts 111°
2026-05-06 12:08 51.43674 -0.34859 2151 ft 209 kts 92°
2026-05-06 12:09 51.43410 -0.32503 2334 ft 230 kts 100°
2026-05-06 12:09 51.42971 -0.29955 2689 ft 242 kts 103°
2026-05-06 12:09 51.42511 -0.27402 3165 ft 248 kts 99°
2026-05-06 12:09 51.42179 -0.24675 3712 ft 251 kts 97°
2026-05-06 12:10 51.41857 -0.21966 4335 ft 253 kts 98°
2026-05-06 12:10 51.41511 -0.19256 4959 ft 255 kts 98°
2026-05-06 12:10 51.41138 -0.16459 5519 ft 259 kts 99°
2026-05-06 12:10 51.40762 -0.13673 5985 ft 260 kts 99°
2026-05-06 12:11 51.40371 -0.10816 5976 ft 268 kts 99°
2026-05-06 12:11 51.39967 -0.07895 5956 ft 270 kts 99°
2026-05-06 12:11 51.39570 -0.05011 6009 ft 272 kts 99°
2026-05-06 12:11 51.39160 -0.02040 6021 ft 275 kts 99°
2026-05-06 12:12 51.38752 0.00893 6009 ft 276 kts 99°
2026-05-06 12:12 51.38342 0.03834 6010 ft 274 kts 100°
2026-05-06 12:12 51.37926 0.06807 6001 ft 274 kts 99°
2026-05-06 12:12 51.37519 0.09711 5986 ft 274 kts 99°
2026-05-06 12:13 51.37104 0.12668 6005 ft 271 kts 99°
2026-05-06 12:13 51.36698 0.15563 6296 ft 273 kts 100°
2026-05-06 12:13 51.36277 0.18557 6856 ft 278 kts 100°
2026-05-06 12:13 51.35851 0.21586 7455 ft 280 kts 100°
2026-05-06 12:14 51.35429 0.24580 7998 ft 284 kts 100°
2026-05-06 12:14 51.34995 0.27646 8545 ft 288 kts 100°
2026-05-06 12:14 51.34548 0.30783 9115 ft 291 kts 101°
2026-05-06 12:14 51.34105 0.33894 9700 ft 296 kts 101°
2026-05-06 12:15 51.33647 0.37119 10216 ft 299 kts 101°
2026-05-06 12:15 51.33186 0.40362 10487 ft 315 kts 101°
2026-05-06 12:15 51.32683 0.43884 10591 ft 335 kts 101°
2026-05-06 12:15 51.32164 0.47505 10706 ft 356 kts 101°
2026-05-06 12:16 51.31589 0.51506 10974 ft 371 kts 102°
2026-05-06 12:16 51.31013 0.55497 11645 ft 374 kts 102°
2026-05-06 12:16 51.30439 0.59459 12426 ft 376 kts 102°
2026-05-06 12:16 51.29780 0.63518 13171 ft 378 kts 105°
2026-05-06 12:17 51.29054 0.67496 14059 ft 377 kts 106°
2026-05-06 12:17 51.28296 0.71529 14472 ft 387 kts 107°
2026-05-06 12:17 51.27515 0.75673 15069 ft 392 kts 107°
2026-05-06 12:17 51.26749 0.79765 15687 ft 396 kts 107°
2026-05-06 12:18 51.25959 0.84007 16301 ft 399 kts 107°
2026-05-06 12:18 51.25170 0.88261 17060 ft 400 kts 107°
2026-05-06 12:18 51.24407 0.92374 17745 ft 402 kts 107°
2026-05-06 12:18 51.23607 0.96692 18231 ft 410 kts 107°
2026-05-06 12:19 51.22806 1.01008 18714 ft 415 kts 107°
2026-05-06 12:19 51.21982 1.05437 19321 ft 417 kts 107°
2026-05-06 12:19 51.21155 1.09879 19914 ft 419 kts 107°
2026-05-06 12:19 51.20338 1.14248 20434 ft 423 kts 107°
2026-05-06 12:20 51.19492 1.18764 20990 ft 426 kts 108°
2026-05-06 12:20 51.18656 1.23218 21499 ft 430 kts 108°
2026-05-06 12:20 51.17806 1.27740 21954 ft 435 kts 108°
2026-05-06 12:20 51.16935 1.32378 22373 ft 441 kts 107°
2026-05-06 12:21 51.16248 1.37062 22807 ft 446 kts 101°
2026-05-06 12:21 51.15879 1.41990 23320 ft 450 kts 95°
2026-05-06 12:21 51.15666 1.46888 23744 ft 453 kts 95°
2026-05-06 12:21 51.15454 1.51905 24198 ft 455 kts 95°
2026-05-06 12:22 51.15233 1.56935 24710 ft 455 kts 95°
2026-05-06 12:22 51.15007 1.61846 25313 ft 452 kts 95°
2026-05-06 12:22 51.14769 1.66779 25747 ft 454 kts 95°
2026-05-06 12:22 51.14524 1.71731 26165 ft 456 kts 95°
2026-05-06 12:23 51.14272 1.76745 26568 ft 458 kts 95°
2026-05-06 12:23 51.14014 1.81801 27046 ft 459 kts 95°
2026-05-06 12:23 51.13761 1.86754 27477 ft 460 kts 95°
2026-05-06 12:23 51.13501 1.91846 27804 ft 464 kts 95°
2026-05-06 12:24 51.13240 1.96869 28209 ft 465 kts 95°
2026-05-06 12:24 51.12974 2.01950 28465 ft 469 kts 95°
2026-05-06 12:24 51.12695 2.07215 28764 ft 473 kts 95°
2026-05-06 12:24 51.12424 2.12282 29052 ft 476 kts 95°
2026-05-06 12:25 51.12140 2.17540 29376 ft 478 kts 95°
2026-05-06 12:25 51.11857 2.22742 29618 ft 482 kts 96°
2026-05-06 12:25 51.11566 2.28073 29851 ft 485 kts 96°
2026-05-06 12:25 51.11271 2.33427 30099 ft 487 kts 96°
2026-05-06 12:26 51.10978 2.38690 30325 ft 488 kts 96°
2026-05-06 12:26 51.10678 2.44062 30661 ft 487 kts 96°
2026-05-06 12:26 51.10386 2.49238 30886 ft 488 kts 96°
2026-05-06 12:26 51.10080 2.54634 30912 ft 490 kts 96°
2026-05-06 12:27 51.09352 2.65327 30950 ft 491 kts 101°
2026-05-06 12:27 51.07648 2.75786 30938 ft 486 kts 108°
2026-05-06 12:28 51.05752 2.85860 30934 ft 482 kts 107°
2026-05-06 12:28 51.03875 2.95974 30936 ft 482 kts 107°
2026-05-06 12:29 51.02022 3.06059 30935 ft 482 kts 107°
2026-05-06 12:29 51.00160 3.16173 30927 ft 482 kts 107°
2026-05-06 12:30 50.98268 3.26383 30915 ft 482 kts 107°
2026-05-06 12:30 50.96399 3.36408 30909 ft 482 kts 107°
2026-05-06 12:31 50.94492 3.46592 30905 ft 482 kts 107°
2026-05-06 12:31 50.92596 3.56659 30902 ft 481 kts 108°
2026-05-06 12:32 50.90696 3.66681 30900 ft 481 kts 108°
2026-05-06 12:32 50.88779 3.76627 30901 ft 480 kts 108°
2026-05-06 12:33 50.86836 3.86636 30897 ft 481 kts 108°
2026-05-06 12:33 50.84866 3.96747 30889 ft 481 kts 108°
2026-05-06 12:34 50.82918 4.06710 30889 ft 480 kts 108°
2026-05-06 12:34 50.80966 4.16643 30882 ft 480 kts 108°
2026-05-06 12:35 50.79000 4.26594 30884 ft 479 kts 108°
2026-05-06 12:35 50.77027 4.36530 30885 ft 478 kts 109°
2026-05-06 12:36 50.75026 4.46550 30885 ft 478 kts 109°
2026-05-06 12:36 50.73056 4.56383 30885 ft 478 kts 109°
2026-05-06 12:37 50.71088 4.66295 30887 ft 478 kts 108°
2026-05-06 12:37 50.69182 4.76195 30877 ft 478 kts 108°
2026-05-06 12:38 50.67244 4.86188 30875 ft 478 kts 108°
2026-05-06 12:38 50.65277 4.96130 30869 ft 478 kts 109°
2026-05-06 12:39 50.63258 5.05925 30865 ft 478 kts 109°
2026-05-06 12:39 50.61201 5.15830 30860 ft 478 kts 109°
2026-05-06 12:40 50.59154 5.25693 30857 ft 477 kts 109°
2026-05-06 12:40 50.57111 5.35510 30859 ft 477 kts 109°
2026-05-06 12:41 50.55075 5.45248 30854 ft 477 kts 109°
2026-05-06 12:41 50.53015 5.55053 30860 ft 477 kts 109°
2026-05-06 12:42 50.51071 5.64952 30860 ft 478 kts 103°
2026-05-06 12:42 50.49822 5.75166 30857 ft 479 kts 102°
2026-05-06 12:43 50.48540 5.85252 30848 ft 479 kts 102°
2026-05-06 12:43 50.47204 5.95386 30842 ft 480 kts 103°
2026-05-06 12:44 50.45849 6.05634 30827 ft 480 kts 102°
2026-05-06 12:44 50.44504 6.15777 30821 ft 480 kts 102°
2026-05-06 12:45 50.43163 6.25842 30809 ft 481 kts 103°
2026-05-06 12:46 50.41245 6.41186 30791 ft 482 kts 98°
2026-05-06 12:46 50.40464 6.51530 30789 ft 483 kts 97°
2026-05-06 12:47 50.39733 6.61909 30791 ft 484 kts 97°
2026-05-06 12:47 50.38960 6.72218 30804 ft 486 kts 98°
2026-05-06 12:48 50.38141 6.82647 30818 ft 488 kts 98°
2026-05-06 12:48 50.37295 6.93230 30791 ft 490 kts 98°
2026-05-06 12:49 50.36449 7.03712 30801 ft 490 kts 98°
2026-05-06 12:49 50.35592 7.14214 30813 ft 491 kts 98°
2026-05-06 12:50 50.34733 7.24648 30794 ft 492 kts 99°
2026-05-06 12:50 50.33848 7.35259 30810 ft 493 kts 99°
2026-05-06 12:51 50.32960 7.45790 30807 ft 494 kts 99°
2026-05-06 12:51 50.32059 7.56349 30787 ft 495 kts 99°
2026-05-06 12:52 50.31148 7.66922 30798 ft 496 kts 100°
2026-05-06 12:52 50.30232 7.77449 30794 ft 498 kts 100°
2026-05-06 12:53 50.29298 7.88074 30786 ft 499 kts 100°
2026-05-06 12:53 50.28365 7.98827 30774 ft 500 kts 100°
2026-05-06 12:54 50.27477 8.09493 30782 ft 500 kts 100°
2026-05-06 12:54 50.26590 8.20084 30774 ft 501 kts 100°
2026-05-06 12:55 50.25680 8.30755 30776 ft 501 kts 101°
2026-05-06 12:55 50.24755 8.41429 30774 ft 501 kts 101°
2026-05-06 12:56 50.23830 8.51988 30770 ft 501 kts 101°
2026-05-06 12:56 50.22877 8.62748 30762 ft 500 kts 101°
2026-05-06 12:57 50.21925 8.73394 30768 ft 499 kts 102°
2026-05-06 12:57 50.20965 8.84009 30768 ft 498 kts 102°
2026-05-06 12:58 50.19987 8.94710 30761 ft 498 kts 102°
2026-05-06 12:58 50.19019 9.05196 30760 ft 497 kts 102°
2026-05-06 12:59 50.18032 9.15772 30750 ft 497 kts 102°
2026-05-06 12:59 50.17040 9.26323 30758 ft 496 kts 102°
2026-05-06 13:00 50.16036 9.36863 30761 ft 496 kts 102°
2026-05-06 13:00 50.15021 9.47418 30742 ft 495 kts 103°
2026-05-06 13:01 50.14002 9.57918 30746 ft 495 kts 103°
2026-05-06 13:01 50.12976 9.68395 30751 ft 493 kts 103°
2026-05-06 13:02 50.11942 9.78845 30750 ft 492 kts 103°
2026-05-06 13:02 50.10896 9.89322 30747 ft 492 kts 104°
2026-05-06 13:03 50.09846 9.99737 30759 ft 492 kts 104°
2026-05-06 13:03 50.08787 10.10159 30760 ft 492 kts 104°
2026-05-06 13:04 50.07711 10.20663 30758 ft 493 kts 103°
2026-05-06 13:04 50.07264 10.31227 30755 ft 499 kts 94°
2026-05-06 13:05 50.07393 10.41921 30767 ft 500 kts 94°
2026-05-06 13:05 50.07471 10.52640 30775 ft 501 kts 95°
2026-05-06 13:06 50.07324 10.63469 30780 ft 497 kts 102°
2026-05-06 13:06 50.05985 10.73791 30782 ft 490 kts 111°
2026-05-06 13:07 50.04203 10.83872 30791 ft 491 kts 111°
2026-05-06 13:07 50.02430 10.94023 30784 ft 493 kts 111°
2026-05-06 13:08 50.00669 11.04230 30782 ft 494 kts 110°
2026-05-06 13:08 49.98899 11.14491 30783 ft 495 kts 111°
2026-05-06 13:09 49.97115 11.24782 30782 ft 496 kts 110°
2026-05-06 13:09 49.95344 11.34930 30793 ft 496 kts 111°
2026-05-06 13:10 49.93526 11.45280 30792 ft 497 kts 111°
2026-05-06 13:10 49.91693 11.55647 30784 ft 498 kts 111°
2026-05-06 13:11 49.89849 11.66018 30781 ft 500 kts 111°
2026-05-06 13:11 49.87989 11.76425 30774 ft 501 kts 111°
2026-05-06 13:12 49.86135 11.86731 30770 ft 503 kts 111°
2026-05-06 13:12 49.84270 11.97047 30770 ft 504 kts 111°
2026-05-06 13:13 49.82377 12.07461 30771 ft 505 kts 111°
2026-05-06 13:13 49.80482 12.17820 30767 ft 507 kts 111°
2026-05-06 13:14 49.78587 12.28123 30774 ft 507 kts 111°
2026-05-06 13:14 49.76667 12.38505 30772 ft 507 kts 111°
2026-05-06 13:15 49.74717 12.48990 30779 ft 507 kts 111°
2026-05-06 13:15 49.72782 12.59343 30781 ft 507 kts 111°
2026-05-06 13:16 49.70837 12.69675 30770 ft 506 kts 112°
2026-05-06 13:16 49.68901 12.79916 30773 ft 506 kts 112°
2026-05-06 13:17 49.66934 12.90257 30776 ft 507 kts 112°
2026-05-06 13:17 49.64954 13.00611 30773 ft 507 kts 112°
2026-05-06 13:18 49.62955 13.11006 30778 ft 507 kts 112°
2026-05-06 13:18 49.60974 13.21256 30774 ft 507 kts 112°
2026-05-06 13:19 49.58972 13.31555 30769 ft 508 kts 112°
2026-05-06 13:19 49.56957 13.41866 30772 ft 508 kts 112°
2026-05-06 13:20 49.54927 13.52197 30772 ft 509 kts 112°
2026-05-06 13:20 49.52866 13.62631 30778 ft 510 kts 112°
2026-05-06 13:21 49.50828 13.72895 30773 ft 511 kts 112°
2026-05-06 13:21 49.48765 13.83231 30780 ft 511 kts 113°
2026-05-06 13:22 49.46680 13.93620 30783 ft 512 kts 113°
2026-05-06 13:22 49.44579 14.04035 30784 ft 512 kts 113°
2026-05-06 13:23 49.42494 14.14312 30780 ft 512 kts 113°
2026-05-06 13:23 49.40386 14.24652 30784 ft 512 kts 113°
2026-05-06 13:24 49.38269 14.34982 30782 ft 512 kts 113°
2026-05-06 13:24 49.36144 14.45298 30771 ft 512 kts 113°
2026-05-06 13:25 49.34003 14.55637 30785 ft 512 kts 113°
2026-05-06 13:25 49.31858 14.65939 30772 ft 512 kts 113°
2026-05-06 13:26 49.29702 14.76246 30773 ft 512 kts 113°
2026-05-06 13:26 49.27517 14.86634 30776 ft 513 kts 113°
2026-05-06 13:27 49.25359 14.96840 30773 ft 513 kts 113°
2026-05-06 13:27 49.23176 15.07121 30768 ft 513 kts 113°
2026-05-06 13:28 49.20982 15.17392 30770 ft 513 kts 113°
2026-05-06 13:28 49.18779 15.27659 30777 ft 512 kts 113°
2026-05-06 13:29 49.16928 15.36244 30771 ft 512 kts 113°
2026-05-06 13:29 49.14358 15.48109 30775 ft 510 kts 113°
2026-05-06 13:30 49.12143 15.58276 30781 ft 509 kts 113°
2026-05-06 13:30 49.09921 15.68427 30796 ft 509 kts 113°
2026-05-06 13:31 49.08071 15.76837 30804 ft 509 kts 113°
2026-05-06 13:31 49.05466 15.88626 30808 ft 509 kts 113°
2026-05-06 13:32 49.03196 15.98847 30813 ft 509 kts 114°
2026-05-06 13:32 49.01327 16.07226 30814 ft 509 kts 114°
2026-05-06 13:33 48.99061 16.17333 30808 ft 509 kts 114°
2026-05-06 13:33 48.96419 16.29062 30805 ft 509 kts 114°
2026-05-06 13:34 48.94565 16.37258 30804 ft 509 kts 114°
2026-05-06 13:34 48.92219 16.47575 30794 ft 508 kts 114°
2026-05-06 13:35 48.89926 16.57616 30809 ft 508 kts 114°
2026-05-06 13:35 48.87622 16.67657 30806 ft 508 kts 114°
2026-05-06 13:36 48.85312 16.77681 30813 ft 508 kts 114°
2026-05-06 13:36 48.83009 16.87621 30804 ft 507 kts 114°
2026-05-06 13:37 48.80661 16.97721 30802 ft 508 kts 114°
2026-05-06 13:37 48.78277 17.07683 30800 ft 506 kts 117°
2026-05-06 13:38 48.75135 17.17029 30813 ft 502 kts 123°
2026-05-06 13:38 48.71802 17.26147 30816 ft 503 kts 123°
2026-05-06 13:39 48.68488 17.35360 30818 ft 505 kts 122°
2026-05-06 13:39 48.65166 17.44647 30820 ft 505 kts 122°
2026-05-06 13:40 48.60907 17.54950 30827 ft 499 kts 132°
2026-05-06 13:40 48.57035 17.61417 30826 ft 494 kts 140°
2026-05-06 13:41 48.52198 17.68546 30825 ft 495 kts 140°
2026-05-06 13:41 48.47330 17.75752 30831 ft 495 kts 140°
2026-05-06 13:42 48.42430 17.83051 30830 ft 496 kts 140°
2026-05-06 13:42 48.37569 17.90296 30838 ft 497 kts 140°
2026-05-06 13:43 48.32736 17.97477 30842 ft 497 kts 140°
2026-05-06 13:43 48.27857 18.04702 30852 ft 497 kts 140°
2026-05-06 13:44 48.22970 18.11917 30852 ft 498 kts 140°
2026-05-06 13:44 48.18032 18.19187 30856 ft 498 kts 140°
2026-05-06 13:45 48.13133 18.26379 30862 ft 498 kts 140°
2026-05-06 13:45 48.05778 18.37139 30861 ft 499 kts 140°
2026-05-06 13:46 48.00851 18.44322 30866 ft 500 kts 140°
2026-05-06 13:46 47.95926 18.51484 30863 ft 500 kts 140°
2026-05-06 13:47 47.90985 18.58647 30866 ft 500 kts 140°
2026-05-06 13:47 47.86069 18.65758 30875 ft 501 kts 140°
2026-05-06 13:48 47.81257 18.73277 30873 ft 505 kts 132°
2026-05-06 13:48 47.77380 18.81895 30882 ft 509 kts 123°
2026-05-06 13:49 47.73933 18.90960 30884 ft 510 kts 122°
2026-05-06 13:49 47.70488 18.99967 30887 ft 510 kts 123°
2026-05-06 13:50 47.66987 19.08993 30894 ft 510 kts 123°
2026-05-06 13:50 47.63442 19.18056 30905 ft 511 kts 123°
2026-05-06 13:51 47.59886 19.27111 30905 ft 511 kts 123°
2026-05-06 13:51 47.56361 19.36063 30907 ft 511 kts 123°
2026-05-06 13:52 47.52808 19.45056 30906 ft 511 kts 123°
2026-05-06 13:52 47.49249 19.54039 30910 ft 511 kts 123°
2026-05-06 13:53 47.45686 19.63001 30902 ft 511 kts 123°
2026-05-06 13:53 47.42078 19.72047 30906 ft 511 kts 123°
2026-05-06 13:54 47.38525 19.80925 30920 ft 511 kts 123°
2026-05-06 13:54 47.34937 19.89860 30906 ft 511 kts 123°
2026-05-06 13:55 47.31348 19.98769 30906 ft 510 kts 123°
2026-05-06 13:55 47.27757 20.07654 30919 ft 510 kts 123°
2026-05-06 13:56 47.24138 20.16579 30916 ft 511 kts 123°
2026-05-06 13:56 47.20525 20.25458 30916 ft 511 kts 123°
2026-05-06 13:57 47.16906 20.34324 30908 ft 511 kts 123°
2026-05-06 13:57 47.13279 20.43181 30913 ft 511 kts 123°
2026-05-06 13:58 47.09712 20.51864 30922 ft 511 kts 123°
2026-05-06 13:58 47.05989 20.60899 30923 ft 511 kts 123°
2026-05-06 13:59 47.02337 20.69731 30926 ft 511 kts 123°
2026-05-06 13:59 46.98679 20.78548 30937 ft 511 kts 123°
2026-05-06 14:00 46.95068 20.87226 30937 ft 512 kts 123°
2026-05-06 14:00 46.91337 20.96163 30945 ft 512 kts 123°
2026-05-06 14:01 46.87652 21.04961 30932 ft 512 kts 123°
2026-05-06 14:01 46.83968 21.13730 30940 ft 512 kts 123°
2026-05-06 14:02 46.80304 21.22422 30940 ft 512 kts 123°
2026-05-06 14:02 46.76603 21.31178 30947 ft 512 kts 123°
2026-05-06 14:03 46.72855 21.40017 30951 ft 513 kts 123°
2026-05-06 14:03 46.69117 21.48750 30944 ft 513 kts 126°
2026-05-06 14:04 46.64826 21.56782 30949 ft 511 kts 132°
2026-05-06 14:04 46.60279 21.64604 31123 ft 514 kts 132°
2026-05-06 14:05 46.57978 21.68570 31473 ft 512 kts 132°
2026-05-06 14:05 46.55720 21.72481 31874 ft 509 kts 132°
2026-05-06 14:05 46.53476 21.76381 32260 ft 507 kts 132°
2026-05-06 14:05 46.51219 21.80309 32574 ft 506 kts 132°
2026-05-06 14:06 46.49049 21.84086 32841 ft 506 kts 132°
2026-05-06 14:06 46.46790 21.88014 32905 ft 508 kts 132°
2026-05-06 14:06 46.42297 21.95803 32949 ft 507 kts 132°
2026-05-06 14:07 46.37822 22.03539 32956 ft 504 kts 132°
2026-05-06 14:07 46.33366 22.11217 32957 ft 503 kts 132°
2026-05-06 14:08 46.28891 22.18905 32969 ft 503 kts 132°
2026-05-06 14:08 46.24428 22.26553 32956 ft 504 kts 132°
2026-05-06 14:09 46.19947 22.34212 32964 ft 504 kts 132°
2026-05-06 14:09 46.15447 22.41878 32967 ft 505 kts 132°
2026-05-06 14:10 46.10926 22.49562 32956 ft 507 kts 132°
2026-05-06 14:10 46.06400 22.57232 32962 ft 508 kts 132°
2026-05-06 14:11 46.01864 22.64899 32959 ft 508 kts 132°
2026-05-06 14:11 45.97321 22.72556 32956 ft 508 kts 132°
2026-05-06 14:12 45.92776 22.80197 32959 ft 509 kts 132°
2026-05-06 14:12 45.88244 22.87795 32950 ft 509 kts 132°
2026-05-06 14:13 45.83674 22.95437 32952 ft 509 kts 132°
2026-05-06 14:13 45.78814 23.02781 32958 ft 508 kts 136°
2026-05-06 14:14 45.73882 23.09815 32948 ft 509 kts 137°
2026-05-06 14:14 45.68910 23.16899 32957 ft 510 kts 136°
2026-05-06 14:15 45.63936 23.24009 32962 ft 510 kts 136°
2026-05-06 14:15 45.58918 23.31184 32971 ft 511 kts 136°
2026-05-06 14:16 45.53949 23.38271 32981 ft 510 kts 136°
2026-05-06 14:16 45.49007 23.45301 32990 ft 510 kts 136°
2026-05-06 14:17 45.44028 23.52363 33002 ft 511 kts 136°
2026-05-06 14:17 45.39028 23.59434 32997 ft 513 kts 136°